Temperature
21 20 20 21 26 29 29 30 30 29 29 28 28 28 28 28 28 26 23 22 21 20 19 20 19 19 19 19 19 19 19 19 19 19 19 19 19 19 19 18 18 18 18 18 18 18 18 18 18
20 20 21 25 28 29 29 30 30 29 29 27 27 27 28 27 25 23 22 21 21 20 19 19 20 19 19 19 19 19 19 19 19 19 19 19 19 19 18 18 18 18 18 18 18 18 18 18 18
20 20 24 28 29 30 30 30 30 29 27 27 27 27 27 26 23 22 21 21 20 20 19 19 20 20 20 19 19 19 19 19 19 19 19 19 19 18 18 18 18 18 18 18 18 18 18 18 18
21 23 26 29 30 30 30 30 30 29 28 27 27 27 25 23 23 22 21 20 20 19 19 19 20 20 19 19 19 19 19 19 19 19 19 19 18 18 18 18 18 18 18 18 18 18 18 18 18
22 26 29 29 30 30 30 30 29 30 29 28 27 28 25 22 21 21 20 20 20 20 19 19 20 20 19 19 19 19 19 19 19 19 19 18 18 18 18 18 18 18 18 18 18 18 18 18 18
25 28 29 30 30 30 31 30 29 30 29 28 27 27 25 21 21 20 20 20 20 20 19 19 20 20 19 19 19 19 19 19 19 19 18 18 18 18 18 18 18 18 18 18 18 18 17 17 17
27 29 30 30 30 30 31 29 30 30 29 28 27 27 24 21 21 20 20 20 20 20 19 18 19 19 19 19 19 19 19 19 19 19 18 18 18 18 18 18 18 18 18 18 18 17 17 17 17
26 29 30 30 30 31 30 30 29 29 29 27 27 28 25 21 20 20 20 20 20 20 19 18 18 18 18 19 19 19 19 19 19 19 18 18 18 18 18 18 18 18 18 18 17 17 17 17 17
25 28 30 31 30 31 30 30 29 28 28 26 26 26 24 21 20 20 19 19 19 19 19 19 18 18 18 18 18 19 19 19 19 18 18 18 17 17 17 17 18 18 18 17 17 17 17 17 17
27 29 30 30 31 31 30 30 29 29 28 27 25 23 21 20 20 20 19 19 19 19 19 19 19 18 18 18 18 18 18 18 18 17 17 17 17 17 17 17 17 17 17 18 18 18 17 17 17
28 29 30 30 30 30 30 30 29 29 29 28 26 24 21 20 20 20 20 20 20 19 19 19 18 18 18 18 18 18 18 18 17 17 17 17 17 17 17 17 17 17 17 17 17 17 17 17 17
28 29 29 29 29 29 30 30 29 29 29 27 26 24 21 21 20 20 20 19 19 19 18 18 18 18 18 18 18 18 18 18 18 18 17 17 17 17 17 17 17 17 17 17 17 17 17 17 17
28 29 29 29 29 29 29 29 29 29 27 26 25 23 22 21 21 20 20 19 19 18 18 18 18 18 18 18 18 18 18 18 18 18 18 17 17 17 17 17 17 17 17 17 17 17 16 17 17
29 29 29 29 29 29 29 30 29 28 27 25 24 23 22 21 21 20 19 19 18 18 18 18 18 18 18 18 18 18 18 18 18 18 17 17 17 17 17 17 17 17 17 17 17 17 17 17 17
28 29 30 30 30 30 29 30 29 28 26 25 24 23 22 21 20 20 19 19 18 18 18 18 18 18 18 18 18 18 18 18 18 18 18 18 17 17 17 17 17 17 17 17 17 16 17 17 17
29 29 30 31 30 29 29 29 29 27 26 25 24 23 21 20 20 19 19 18 18 18 18 18 17 18 18 18 18 18 18 18 18 17 18 18 17 17 17 17 17 17 17 17 17 17 17 17 17
29 29 29 30 30 30 29 29 29 26 26 25 24 23 21 20 19 19 18 18 18 18 18 18 18 18 18 18 18 18 18 18 18 17 17 18 18 18 17 17 17 17 17 17 17 17 17 17 17
29 29 29 29 30 29 29 29 29 27 26 25 24 23 21 20 20 19 18 18 18 18 18 18 18 18 18 18 18 17 17 18 17 17 17 17 18 17 17 17 17 17 17 17 17 16 16 17 17
29 29 29 29 30 29 29 29 29 27 26 25 24 23 22 21 20 19 18 18 18 17 17 18 18 18 17 17 17 17 17 17 17 17 17 17 17 17 17 17 17 17 17 16 16 16 16 16 16
28 28 29 29 29 29 28 29 29 27 26 25 24 23 22 21 20 19 18 18 17 17 17 17 18 18 17 17 17 17 17 17 17 17 17 17 17 17 17 17 17 17 17 16 16 16 17 17 16
28 28 28 28 29 29 28 29 28 27 25 24 24 23 22 21 20 19 18 17 17 17 17 17 17 17 17 17 17 17 17 17 17 17 17 17 17 17 17 17 17 17 17 17 16 16 16 16 16
28 29 28 28 28 29 28 28 29 28 27 26 24 23 22 21 20 19 18 18 17 17 17 17 17 17 17 17 17 17 17 17 17 17 17 17 17 17 17 17 17 17 17 17 16 16 16 16 17
28 28 28 28 28 28 29 28 29 28 27 27 25 24 23 21 20 19 18 18 18 17 17 17 17 17 17 17 17 17 17 17 17 17 17 17 17 17 17 17 17 17 16 16 16 16 16 16 17
28 28 28 28 28 27 28 28 28 29 28 27 26 24 22 21 20 19 18 18 17 17 17 17 17 17 17 17 17 17 17 17 17 17 17 17 17 17 17 17 17 16 16 16 16 16 16 16 16
28 27 27 27 27 27 28 27 28 28 27 27 26 24 22 21 20 19 18 18 17 17 17 17 17 17 17 17 17 17 17 17 17 17 17 17 17 17 17 17 17 16 16 16 16 16 16 16 16
28 28 27 26 27 28 28 28 29 28 27 25 25 24 23 21 20 19 18 18 17 17 17 17 17 17 17 17 17 17 17 17 17 17 17 17 17 17 17 17 17 16 16 16 16 16 16 15 15
28 28 29 28 27 27 28 28 28 27 26 26 25 24 23 22 21 20 19 18 17 17 17 17 17 17 17 17 17 17 17 17 17 17 17 17 17 17 17 17 16 16 16 16 16 16 15 15 15
29 29 28 27 26 26 27 28 28 27 27 26 25 24 23 22 21 20 19 18 18 17 17 17 17 17 17 17 17 17 17 17 17 17 17 17 16 16 16 16 16 16 16 16 16 15 15 15 15
27 27 27 28 27 26 26 27 28 27 27 26 25 24 23 22 22 20 20 19 18 18 17 17 17 17 17 17 17 17 17 17 17 17 17 17 17 17 17 16 16 16 16 16 16 15 15 15 15
28 28 27 26 26 27 27 27 27 27 27 26 25 24 23 22 22 21 20 19 18 18 17 17 17 17 17 17 17 17 17 17 17 17 17 17 17 17 17 16 16 16 16 16 16 16 15 15 15
Wind_Speed
12 9 5 4 5 3 2 3 1 2 3 3 5 3 2 1 1 3 7 19 21 22 23 22 20 19 19 19 18 18 18 17 17 16 15 15 14 13 12 12 12 12 12 12 12 13 13 13 13
9 6 5 5 5 2 4 2 2 2 3 5 5 3 2 2 4 6 11 19 22 22 23 22 22 20 19 19 18 18 18 17 17 16 15 14 14 13 12 12 12 12 12 12 12 12 12 12 12
8 6 5 4 3 1 3 3 2 3 5 5 5 2 0 2 5 7 12 22 22 21 22 22 22 21 20 19 18 18 17 17 16 16 15 14 14 13 12 12 12 12 12 12 12 12 12 12 12
6 5 5 6 3 1 1 1 3 5 5 5 5 4 3 3 4 8 18 23 22 21 22 24 22 21 20 19 18 18 17 16 16 15 14 14 14 13 13 12 12 12 12 12 12 12 11 11 11
6 5 7 5 3 2 1 1 3 5 5 6 6 3 4 4 5 13 21 23 22 21 21 24 22 21 20 19 18 18 17 16 15 15 14 14 13 13 13 12 12 12 12 12 11 11 10 10 10
5 5 6 4 4 2 1 2 5 5 4 4 5 4 3 5 10 17 21 21 21 21 21 23 22 21 20 19 18 17 17 16 15 14 14 13 13 13 12 12 12 12 11 11 10 10 9 8 8
7 6 5 3 3 3 1 1 5 5 5 5 4 4 5 8 12 18 20 19 20 20 19 21 21 20 19 18 18 17 16 16 15 14 14 13 13 13 12 12 12 11 11 10 9 9 8 7 7
6 5 5 4 3 2 2 2 2 4 4 3 5 4 5 11 15 18 19 18 18 18 18 19 20 19 19 18 18 17 16 15 14 14 14 13 13 12 12 12 11 11 10 9 9 8 7 7 7
5 6 5 3 2 1 1 2 2 3 4 5 5 1 6 17 19 19 18 18 17 17 17 18 18 18 18 18 18 17 16 15 15 14 13 13 12 12 11 12 11 10 9 8 8 7 7 7 9
7 7 3 1 3 2 2 4 3 5 8 7 7 7 13 19 20 21 21 21 20 19 18 16 17 17 16 15 16 15 14 14 12 12 13 10 8 7 9 13 9 9 8 8 7 6 7 8 8
7 6 3 4 5 6 6 5 5 7 8 8 10 13 17 20 20 21 21 21 20 20 18 16 15 15 15 12 13 11 11 11 11 11 10 7 8 8 8 9 9 8 8 7 8 7 5 3 3
7 8 8 7 7 7 7 6 6 9 6 2 5 13 19 21 21 21 21 20 18 19 19 17 16 14 13 12 11 10 10 10 9 11 11 9 6 6 6 5 7 6 6 4 4 4 3 2 3
11 8 8 9 9 9 8 8 8 7 4 1 6 13 18 20 20 19 18 18 18 18 18 17 16 15 13 11 9 10 9 10 10 10 10 8 7 6 6 5 4 4 4 6 4 3 3 3 4
6 8 10 9 8 6 7 7 7 5 3 4 8 12 15 17 17 16 17 17 17 18 17 16 16 15 13 11 10 9 9 9 10 10 11 10 7 6 6 6 5 4 4 3 3 4 4 3 2
8 9 9 7 6 4 6 9 7 4 4 6 8 10 12 14 16 17 18 17 17 17 16 16 16 15 15 14 12 10 10 10 9 9 10 9 8 7 6 5 5 5 5 5 4 4 3 4 3
9 10 10 5 4 4 7 8 1 3 6 7 8 9 10 13 15 15 16 16 16 16 16 16 15 15 15 13 12 9 10 10 9 9 10 10 8 8 6 5 5 5 5 4 4 4 3 3 2
11 10 9 5 4 4 7 9 1 3 6 7 8 9 10 11 13 13 15 16 16 16 16 16 15 15 15 14 11 9 8 9 9 9 9 10 9 9 7 5 5 6 5 4 4 4 3 3 2
8 8 8 7 3 5 9 9 4 4 6 7 8 8 9 11 13 13 14 15 16 16 16 17 16 15 14 12 10 8 8 9 9 9 8 10 9 9 7 6 6 6 4 4 3 3 2 2 3
7 8 9 6 3 6 9 9 6 4 7 7 7 8 9 10 11 11 13 14 15 15 16 17 17 15 13 11 11 11 11 10 9 9 10 11 10 10 8 6 6 6 5 5 5 4 5 4 3
9 10 9 6 3 6 9 10 6 5 7 7 7 8 8 9 10 11 12 13 15 16 16 16 16 15 15 12 11 10 10 9 9 8 9 11 10 10 9 7 7 7 5 6 5 5 4 3 4
11 11 9 8 7 7 9 10 6 6 6 6 7 8 8 9 11 12 13 14 14 15 16 15 16 16 16 14 11 9 8 7 8 8 8 9 10 10 9 9 8 7 7 7 7 6 7 5 5
11 8 9 9 10 7 5 9 4 5 6 7 8 9 9 10 10 11 12 13 14 14 14 14 15 15 15 15 13 14 12 11 10 9 8 9 10 10 10 9 8 8 7 6 7 7 6 6 5
10 6 8 9 10 11 8 9 4 5 5 6 8 9 9 10 10 11 11 12 12 13 14 14 14 14 14 14 15 14 12 10 8 9 9 9 9 9 10 9 8 8 7 7 6 5 7 6 6
8 7 8 9 10 11 7 8 6 2 2 3 6 8 9 10 10 10 10 10 11 12 12 13 14 13 14 15 15 15 13 11 11 11 10 9 8 8 10 10 8 8 7 7 7 6 8 6 5
11 10 8 9 9 7 2 7 5 1 1 2 4 8 10 10 11 11 10 10 11 12 13 13 14 13 14 15 15 14 13 12 12 11 10 10 8 8 10 9 8 8 7 7 7 7 6 6 6
13 13 10 8 8 6 4 6 2 2 2 2 3 6 9 11 11 11 11 11 11 12 13 13 13 13 14 14 14 13 13 11 10 11 10 10 9 9 10 10 10 9 9 8 7 7 7 6 6
10 12 11 11 11 9 6 4 2 4 4 4 5 7 9 11 11 11 11 12 11 12 12 13 13 13 14 14 14 13 13 12 11 10 10 9 8 8 10 11 11 10 9 8 8 7 7 6 7
10 9 7 10 9 10 8 6 3 2 4 5 6 8 9 10 11 11 11 12 11 11 12 12 12 13 13 13 12 11 12 12 11 10 11 10 9 9 10 11 11 10 10 10 9 8 7 7 7
10 10 10 10 9 9 9 3 3 1 3 5 6 7 9 10 11 11 11 12 12 12 11 11 11 12 12 12 12 11 11 11 11 10 11 10 10 10 11 11 11 11 11 10 9 9 9 9 8
10 11 11 10 10 10 11 4 5 3 3 3 4 6 8 9 9 10 12 12 12 12 12 11 11 12 11 11 11 11 11 11 11 11 11 10 10 10 11 11 11 11 11 11 11 11 10 10 10
Wind_Direction
175 183 208 233 238 223 95 93 77 128 135 121 148 168 187 150 21 68 122 151 150 150 147 153 152 150 146 144 142 140 139 139 138 138 136 135 132 128 125 121 117 113 109 106 105 105 105 104 105
174 187 222 241 253 185 114 111 129 109 106 138 160 175 180 124 63 104 141 150 151 150 150 155 151 151 148 145 143 141 140 139 139 138 137 134 131 129 125 121 117 113 109 107 107 106 105 105 104
179 219 253 249 243 289 90 111 118 113 147 169 169 177 204 97 121 138 148 152 153 150 150 149 153 152 149 146 144 142 141 140 140 138 137 134 132 128 123 120 116 112 110 107 106 106 106 106 105
196 221 237 245 221 117 14 96 149 161 163 185 182 154 125 74 128 143 150 155 153 152 153 150 156 153 151 148 146 143 142 142 140 139 137 134 131 128 124 119 115 113 111 108 106 106 106 108 109
231 244 233 217 197 148 229 281 202 191 176 184 197 169 132 110 127 144 153 157 156 156 154 151 157 154 153 151 148 146 145 143 142 140 137 133 130 127 124 120 116 113 111 109 107 107 108 110 114
222 238 234 198 148 152 181 206 209 204 187 179 198 197 125 126 147 151 156 160 159 158 154 151 158 157 155 153 151 148 147 144 142 139 135 132 129 127 124 122 119 116 114 112 109 108 107 110 115
250 245 245 212 167 159 104 186 212 211 205 197 200 192 138 145 150 154 157 160 161 160 155 156 161 160 158 156 154 152 149 146 142 139 137 133 130 128 126 124 122 120 118 115 112 108 104 106 114
261 256 221 202 195 144 107 197 217 229 208 177 203 209 160 154 153 154 157 161 164 164 161 161 163 162 163 161 158 155 152 149 145 142 139 135 133 131 132 134 123 122 121 120 116 111 107 108 114
245 241 211 189 197 112 100 237 208 217 191 192 206 202 121 146 153 155 160 165 168 170 168 168 165 166 167 163 158 159 155 153 152 151 147 156 154 145 152 120 123 126 124 122 119 116 121 133 131
228 238 209 324 303 310 296 269 231 207 213 207 192 152 139 152 160 165 169 171 172 174 175 173 169 167 168 164 160 165 164 161 168 155 160 165 143 143 130 121 130 131 130 131 126 137 171 204 151
226 247 278 275 288 296 280 260 230 235 235 222 205 174 161 165 170 175 177 177 176 175 177 175 172 169 171 163 164 166 163 162 166 158 163 153 154 152 147 148 150 153 162 160 150 182 189 164 104
237 252 265 273 290 282 274 260 237 244 264 297 206 173 171 176 180 183 181 180 178 179 179 176 173 174 174 168 166 167 165 167 166 161 170 163 166 163 153 158 153 163 162 155 172 176 156 144 142
235 257 265 271 275 276 268 254 252 251 259 186 164 167 179 185 186 187 183 180 181 181 181 178 175 175 174 170 175 172 171 170 165 163 171 172 170 172 160 153 159 166 156 167 182 165 148 167 161
243 262 271 270 264 251 254 250 241 251 220 172 170 178 185 189 189 185 181 181 182 182 181 178 178 177 176 175 177 172 172 170 170 171 171 181 178 169 167 167 168 169 176 164 174 156 167 177 148
258 261 251 234 239 235 255 244 234 237 188 181 182 183 185 188 188 188 185 184 185 185 182 179 180 179 181 181 180 176 174 175 174 170 170 180 182 174 182 174 181 173 164 164 180 168 178 180 173
237 239 237 206 225 222 249 266 166 186 197 198 193 187 186 188 192 192 187 187 188 187 184 183 184 182 185 184 182 179 180 174 176 173 174 181 184 183 190 185 178 165 174 176 170 193 192 182 189
221 233 243 227 206 244 252 276 255 193 208 209 201 193 190 188 192 190 188 188 189 188 185 184 185 184 185 182 180 181 178 178 179 178 178 181 187 187 193 189 165 179 179 183 194 167 202 187 203
226 242 247 254 230 264 265 273 271 214 222 219 207 198 193 193 192 188 187 187 187 187 184 184 185 185 183 178 175 178 182 184 184 182 181 183 188 191 194 188 175 191 184 187 189 161 195 207 216
264 262 264 268 283 275 272 277 270 221 222 222 214 204 198 198 188 184 184 186 186 188 187 186 185 182 182 180 179 181 183 186 186 186 183 188 192 190 195 193 175 199 192 194 190 193 188 208 197
247 255 260 260 265 277 282 278 260 214 222 224 216 208 203 192 183 183 184 184 189 189 189 187 184 183 185 183 183 186 182 186 186 186 181 191 191 192 195 198 194 194 191 196 197 207 223 209 203
242 254 270 285 288 251 275 265 219 197 210 215 214 206 198 192 186 184 187 187 189 189 189 187 185 185 187 183 180 178 172 179 181 185 186 192 193 195 203 196 204 196 206 198 201 202 218 220 208
244 250 267 277 275 274 273 290 242 196 209 211 209 200 196 192 189 186 187 190 191 191 190 186 184 186 186 185 186 183 184 187 191 187 186 188 194 196 198 200 202 205 212 198 208 204 214 225 218
248 263 263 266 268 275 255 276 281 182 228 213 203 201 194 192 189 185 187 189 191 190 190 187 185 187 188 191 191 191 193 192 188 187 182 188 191 196 197 200 202 206 215 209 216 196 222 222 236
231 238 245 248 254 256 264 277 284 236 242 218 197 195 191 187 184 181 182 184 184 186 187 186 185 188 189 192 193 194 193 190 189 189 185 190 190 194 197 200 200 206 211 204 208 209 212 232 242
220 235 240 239 236 252 234 266 283 18 214 239 204 189 185 182 179 178 181 182 182 184 184 185 186 190 190 190 192 192 192 193 194 195 192 193 193 196 196 199 198 203 204 205 206 206 220 215 221
218 232 246 262 266 273 228 259 309 112 159 184 187 181 179 179 179 180 180 181 182 183 184 185 184 187 187 188 189 190 192 195 199 201 200 198 200 201 193 197 199 201 201 202 201 210 210 210 218
221 230 252 264 269 274 266 260 232 157 168 166 168 173 178 180 179 179 177 180 182 186 187 187 185 187 189 189 186 189 193 197 197 198 201 202 201 198 193 197 200 200 201 203 202 213 211 207 218
246 242 236 249 260 266 262 255 269 174 175 165 168 172 172 176 178 178 179 181 182 185 186 188 189 190 189 187 187 189 193 195 197 199 200 201 201 201 197 201 200 200 200 202 208 210 210 212 218
208 223 236 248 257 266 274 279 62 101 151 167 166 171 173 175 176 179 179 177 179 180 182 184 185 186 186 186 186 189 191 193 195 200 200 198 200 198 198 200 200 202 203 204 209 219 208 215 218
237 236 231 241 246 250 269 279 85 101 122 150 161 168 172 172 173 176 176 176 178 178 180 182 181 183 183 184 185 187 192 194 195 199 199 197 198 199 199 200 203 204 205 206 211 219 216 218 220
Height
1505 1506 1507 1509 1502 1492 1490 1487 1485 1487 1487 1491 1493 1494 1494 1495 1498 1506 1508 1508 1512 1516 1518 1521 1525 1529 1532 1534 1537 1539 1541 1543 1544 1546 1547 1548 1549 1551 1552 1553 1554 1555 1556 1557 1557 1558 1559 1559 1560
1507 1507 1509 1506 1494 1494 1492 1485 1486 1487 1489 1493 1495 1496 1496 1497 1502 1505 1506 1509 1513 1517 1520 1523 1526 1530 1533 1536 1538 1540 1542 1544 1546 1547 1549 1550 1551 1552 1554 1555 1556 1557 1558 1559 1559 1560 1561 1561 1562
1507 1508 1508 1497 1491 1490 1488 1484 1485 1488 1492 1493 1495 1496 1497 1499 1503 1505 1507 1509 1514 1518 1521 1523 1527 1531 1534 1537 1540 1542 1544 1545 1547 1549 1550 1552 1553 1554 1555 1556 1558 1559 1560 1560 1561 1562 1563 1564 1564
1509 1509 1505 1495 1490 1485 1484 1483 1486 1488 1492 1494 1494 1496 1499 1502 1504 1505 1506 1510 1515 1518 1522 1524 1528 1532 1535 1538 1541 1543 1545 1547 1549 1550 1552 1553 1555 1556 1557 1558 1559 1560 1561 1562 1563 1564 1565 1566 1567
1509 1504 1495 1490 1487 1484 1484 1485 1486 1486 1489 1492 1494 1494 1499 1502 1502 1504 1506 1511 1515 1520 1524 1525 1529 1533 1536 1539 1542 1544 1546 1548 1550 1552 1553 1555 1556 1557 1559 1560 1561 1562 1563 1564 1565 1566 1567 1568 1569
1506 1498 1491 1488 1485 1483 1483 1485 1486 1486 1489 1492 1494 1494 1499 1501 1502 1504 1508 1512 1517 1521 1525 1526 1530 1533 1537 1540 1543 1545 1547 1549 1551 1553 1555 1556 1558 1559 1560 1562 1563 1564 1565 1566 1567 1568 1569 1570 1571
1503 1493 1487 1485 1485 1482 1483 1485 1484 1485 1488 1491 1493 1494 1498 1501 1503 1505 1509 1514 1518 1522 1526 1527 1531 1534 1537 1540 1543 1546 1548 1550 1552 1554 1556 1558 1559 1561 1562 1563 1564 1566 1567 1568 1569 1570 1571 1572 1573
1502 1493 1486 1483 1484 1482 1482 1484 1485 1486 1487 1491 1493 1493 1496 1501 1502 1506 1510 1514 1519 1522 1526 1528 1532 1535 1538 1541 1544 1547 1549 1551 1553 1555 1557 1559 1560 1562 1563 1565 1566 1567 1568 1569 1571 1572 1573 1574 1575
1502 1494 1485 1481 1481 1480 1482 1483 1485 1487 1488 1491 1492 1493 1496 1498 1501 1505 1510 1514 1518 1522 1525 1529 1532 1535 1539 1542 1544 1547 1549 1552 1554 1556 1558 1560 1563 1565 1566 1566 1567 1568 1570 1571 1572 1573 1574 1575 1576
1498 1489 1482 1481 1480 1480 1482 1483 1483 1485 1486 1488 1491 1494 1495 1497 1500 1503 1507 1510 1515 1519 1524 1528 1532 1534 1539 1542 1544 1547 1550 1552 1555 1557 1559 1562 1564 1566 1567 1566 1568 1569 1571 1572 1573 1575 1576 1577 1579
1493 1487 1483 1483 1483 1483 1482 1481 1482 1482 1481 1483 1487 1491 1494 1496 1499 1502 1505 1509 1512 1517 1522 1527 1530 1533 1537 1541 1544 1548 1550 1552 1555 1557 1559 1562 1564 1566 1567 1569 1569 1571 1572 1574 1574 1576 1579 1580 1580
1490 1486 1486 1484 1483 1482 1481 1480 1480 1480 1480 1483 1485 1487 1490 1493 1496 1500 1504 1508 1512 1516 1520 1525 1528 1532 1536 1540 1543 1546 1550 1552 1555 1556 1559 1562 1564 1566 1568 1569 1571 1572 1573 1574 1576 1577 1578 1579 1580
1488 1485 1484 1483 1482 1481 1480 1479 1479 1479 1481 1482 1484 1486 1489 1492 1495 1499 1503 1507 1511 1514 1518 1523 1526 1529 1533 1537 1542 1546 1549 1552 1554 1556 1558 1561 1564 1566 1567 1568 1570 1572 1573 1574 1575 1577 1578 1579 1580
1483 1483 1482 1480 1479 1479 1478 1477 1478 1478 1480 1482 1484 1486 1488 1491 1494 1497 1501 1504 1508 1512 1516 1520 1524 1528 1531 1535 1539 1543 1547 1550 1553 1555 1558 1560 1563 1565 1566 1568 1569 1571 1573 1574 1575 1577 1577 1579 1580
1485 1482 1477 1475 1476 1476 1477 1474 1474 1476 1479 1481 1483 1484 1487 1490 1492 1495 1498 1502 1505 1510 1514 1518 1522 1526 1529 1533 1538 1542 1546 1549 1552 1554 1556 1559 1562 1564 1566 1568 1569 1571 1572 1572 1574 1575 1577 1578 1579
1480 1478 1476 1470 1473 1474 1477 1473 1471 1475 1477 1479 1481 1483 1485 1488 1490 1493 1497 1500 1504 1508 1512 1516 1520 1523 1527 1531 1535 1540 1544 1547 1550 1553 1556 1558 1561 1562 1564 1567 1569 1569 1571 1573 1574 1575 1577 1578 1579
1476 1476 1474 1470 1470 1471 1472 1471 1469 1474 1475 1477 1479 1481 1484 1486 1489 1491 1494 1497 1501 1504 1508 1513 1517 1521 1524 1528 1532 1537 1541 1545 1549 1552 1555 1557 1559 1561 1564 1566 1568 1569 1571 1572 1573 1575 1576 1577 1578
1475 1473 1473 1471 1468 1470 1470 1468 1467 1472 1473 1474 1476 1479 1482 1484 1486 1489 1491 1494 1498 1502 1505 1510 1514 1518 1522 1526 1530 1535 1539 1543 1547 1550 1553 1555 1558 1560 1563 1565 1566 1568 1570 1571 1572 1573 1574 1576 1577
1473 1474 1474 1469 1467 1469 1468 1466 1464 1469 1471 1472 1474 1476 1479 1482 1485 1487 1489 1492 1495 1498 1502 1505 1509 1515 1519 1523 1527 1532 1536 1541 1544 1547 1550 1553 1556 1559 1561 1564 1565 1566 1569 1570 1571 1572 1573 1575 1576
1475 1476 1472 1467 1466 1468 1467 1464 1461 1466 1468 1470 1472 1474 1477 1480 1482 1484 1487 1489 1491 1494 1499 1502 1506 1511 1516 1520 1525 1530 1534 1538 1542 1545 1548 1551 1554 1557 1560 1561 1563 1565 1567 1568 1569 1570 1573 1574 1574
1473 1473 1470 1470 1466 1464 1466 1462 1460 1462 1467 1469 1471 1472 1475 1477 1480 1482 1484 1486 1489 1491 1495 1499 1504 1508 1513 1518 1522 1527 1531 1535 1539 1542 1546 1549 1552 1555 1557 1559 1562 1563 1565 1566 1567 1568 1570 1572 1573
1473 1466 1468 1469 1470 1464 1466 1470 1457 1457 1462 1465 1468 1470 1473 1475 1478 1481 1483 1485 1487 1490 1493 1497 1501 1505 1510 1515 1519 1523 1527 1531 1536 1540 1543 1546 1549 1552 1555 1557 1559 1561 1563 1564 1565 1567 1568 1570 1572
1466 1465 1466 1466 1467 1467 1461 1467 1456 1455 1458 1459 1463 1467 1470 1473 1476 1479 1481 1483 1486 1488 1491 1495 1499 1502 1507 1511 1516 1521 1525 1529 1534 1537 1540 1543 1547 1550 1552 1554 1557 1558 1561 1562 1563 1564 1566 1568 1570
1463 1466 1466 1464 1463 1473 1463 1467 1461 1450 1454 1455 1459 1464 1468 1471 1475 1477 1480 1482 1484 1487 1490 1493 1496 1499 1503 1507 1512 1517 1522 1526 1530 1534 1537 1540 1544 1546 1549 1552 1554 1556 1558 1559 1561 1562 1564 1565 1567
1463 1469 1475 1476 1473 1469 1458 1463 1457 1449 1452 1455 1457 1462 1466 1470 1473 1476 1478 1480 1482 1485 1487 1490 1493 1496 1500 1504 1509 1514 1518 1523 1527 1531 1534 1537 1541 1543 1546 1549 1551 1553 1555 1557 1558 1559 1561 1563 1564
1458 1461 1474 1482 1476 1464 1458 1461 1450 1449 1453 1456 1458 1460 1464 1468 1471 1474 1476 1479 1481 1484 1486 1488 1490 1493 1496 1501 1506 1511 1516 1520 1524 1528 1531 1534 1537 1540 1543 1545 1548 1550 1552 1554 1555 1558 1559 1560 1561
1455 1456 1449 1459 1462 1467 1457 1451 1447 1449 1452 1455 1458 1460 1462 1466 1469 1472 1475 1478 1480 1482 1485 1487 1489 1492 1495 1500 1504 1508 1512 1517 1521 1524 1528 1531 1534 1537 1540 1542 1545 1548 1550 1551 1553 1555 1556 1557 1558
1449 1447 1455 1460 1474 1476 1462 1455 1450 1448 1450 1453 1456 1459 1462 1465 1468 1471 1474 1477 1479 1481 1484 1486 1488 1491 1494 1498 1502 1506 1510 1514 1518 1521 1524 1528 1531 1534 1536 1539 1542 1545 1547 1548 1550 1552 1553 1554 1555
1453 1453 1453 1453 1455 1469 1470 1458 1441 1445 1448 1450 1454 1458 1461 1463 1466 1469 1472 1475 1478 1480 1483 1485 1487 1489 1492 1496 1500 1504 1507 1511 1515 1518 1522 1525 1528 1530 1533 1536 1539 1541 1543 1545 1547 1549 1550 1551 1552
1445 1446 1450 1461 1461 1457 1460 1456 1442 1445 1448 1451 1454 1457 1460 1463 1466 1468 1471 1474 1477 1479 1482 1484 1486 1489 1492 1495 1499 1502 1506 1509 1513 1516 1519 1522 1525 1528 1531 1533 1536 1538 1540 1542 1543 1545 1547 1547 1549